Temperature
17 18 18 18 18 18 18 18 17 17 17 17 17 17 17 17 17 16 16 16 16 16 16 15 16 16 15 15 15 15 15 15 15 15 15 15 15 15 15 15 15 15 15
18 18 18 18 18 18 18 18 17 17 17 17 17 17 17 17 16 16 16 16 16 16 15 15 15 15 15 15 15 15 15 15 15 15 15 15 15 15 15 15 15 14 15
18 18 18 18 18 18 18 17 17 17 17 17 17 17 17 16 16 16 16 16 16 15 15 15 15 15 15 15 15 15 15 15 15 15 15 14 14 14 14 14 14 14 14
18 18 18 18 18 18 18 17 17 17 17 17 17 17 16 16 16 16 16 15 15 15 15 15 15 15 15 14 14 14 14 14 14 14 14 14 14 14 14 14 14 14 14
18 18 18 18 18 17 17 17 17 17 17 16 17 16 16 16 16 16 16 15 15 15 15 15 15 15 15 14 14 14 14 14 14 14 14 14 14 14 14 14 14 14 14
18 17 17 17 17 17 17 17 17 17 16 16 16 16 16 16 16 16 16 15 15 15 15 15 15 15 15 14 14 14 14 14 14 14 14 14 14 13 13 13 13 13 13
17 17 17 17 17 17 17 17 17 16 16 16 16 16 16 16 16 16 15 15 15 15 15 15 15 15 14 14 14 14 14 14 14 14 14 14 13 13 13 13 13 13 13
17 17 17 17 17 17 17 17 16 16 16 16 16 16 16 16 16 15 15 15 15 15 15 15 15 14 14 14 14 14 14 14 14 14 13 13 13 13 13 13 13 13 13
17 17 16 16 16 16 16 16 16 16 16 16 16 16 16 16 15 15 15 15 15 15 15 14 14 14 14 14 14 14 14 13 13 13 13 13 13 13 13 13 13 13 13
16 16 16 16 16 16 16 16 16 16 16 16 15 15 15 15 15 15 15 15 15 15 15 14 14 14 14 14 13 13 13 13 13 13 13 13 13 13 13 13 13 13 12
16 16 16 16 16 16 16 16 15 15 15 15 15 15 15 15 15 15 15 15 14 14 14 14 14 14 14 14 13 13 13 13 13 13 13 13 13 13 13 13 13 12 12
16 16 16 16 16 16 16 15 15 15 15 15 15 15 15 15 15 15 15 14 14 14 14 14 14 14 14 13 13 13 13 13 13 13 13 13 12 12 12 12 12 12 12
16 15 15 15 16 16 16 15 15 15 15 15 15 15 15 15 15 14 14 14 14 14 14 14 14 14 13 13 13 13 13 13 13 13 12 12 12 12 12 12 12 11 11
15 15 15 15 15 15 15 15 15 15 15 15 15 15 15 15 14 14 14 14 14 14 14 14 14 13 13 13 13 13 13 13 12 12 12 12 12 12 11 11 11 11 11
15 15 15 15 15 15 15 15 15 15 15 15 14 14 14 14 14 14 14 14 14 14 14 13 13 13 13 13 13 13 12 12 12 12 12 12 11 11 11 11 11 11 11
15 15 15 15 15 15 15 15 15 15 15 14 14 14 14 14 14 14 14 13 13 13 13 13 13 13 13 13 12 12 12 12 12 12 11 11 11 11 11 11 10 10 10
15 15 15 15 15 15 15 15 15 15 14 14 14 14 14 14 14 14 13 13 13 13 13 13 13 13 12 12 12 12 12 12 12 11 11 11 11 11 10 10 10 10 10
15 15 15 15 15 15 15 15 15 14 14 14 14 14 14 14 13 13 13 13 13 13 13 13 12 12 12 12 12 12 12 12 11 11 11 11 11 10 10 10 10 10 10
15 15 15 15 15 15 15 15 14 14 14 14 14 14 14 13 13 13 13 13 13 13 12 12 12 12 12 12 12 12 11 11 11 11 11 10 10 10 10 10 10 9 9
15 15 15 15 14 14 14 14 14 14 14 14 14 14 13 13 13 13 13 13 12 12 12 12 12 12 12 11 11 11 11 11 11 10 10 10 10 10 9 9 9 9 9
15 15 15 14 14 14 14 14 14 14 14 13 13 13 13 13 13 13 13 12 12 12 12 12 12 11 11 11 11 10 10 10 10 10 10 10 10 9 9 9 9 9 9
14 14 14 14 14 14 14 14 14 14 14 13 13 13 13 13 13 12 12 12 12 12 12 11 11 11 11 11 10 10 10 9 9 9 9 9 9 9 9 9 9 8 8
14 14 14 14 14 14 14 13 13 13 13 13 13 12 12 12 12 12 12 12 12 11 11 11 11 11 11 10 10 10 9 9 9 9 9 9 9 9 9 8 8 8 8
14 14 14 14 14 14 13 13 13 13 13 13 13 12 12 12 12 12 12 11 11 11 11 11 11 10 10 10 10 9 9 9 9 8 9 9 8 8 8 8 8 8 8
14 14 14 14 14 14 13 13 13 13 13 13 12 12 12 12 11 11 11 11 11 11 11 10 10 10 10 10 9 9 9 9 8 8 8 8 8 8 8 8 8 8 7
14 13 14 14 14 13 13 13 13 13 12 12 12 12 11 11 11 11 11 10 10 10 10 10 10 9 9 9 9 9 8 8 8 8 8 8 8 8 8 8 7 7 7
Wind_Speed
8 12 19 19 19 19 18 18 18 18 18 18 18 17 17 17 17 16 16 15 15 15 15 16 16 16 16 17 17 16 16 16 16 16 16 16 16 16 16 15 14 14 15
12 16 20 20 20 19 19 19 18 18 18 17 17 17 17 16 16 16 15 15 15 15 15 16 16 15 16 16 16 16 16 15 15 15 15 14 15 16 16 16 14 13 15
15 17 20 21 21 20 19 19 19 18 18 17 17 17 16 16 16 15 15 15 15 15 15 15 15 15 15 14 14 15 15 14 14 14 13 12 13 15 15 15 15 15 14
16 17 19 21 21 21 20 19 19 18 17 17 17 16 16 16 16 15 15 15 15 15 15 15 15 14 14 13 13 14 14 14 14 13 11 11 11 14 15 15 15 15 14
13 16 19 22 22 21 21 20 19 18 18 17 17 16 16 16 15 15 15 14 14 15 14 14 14 13 13 13 13 14 14 15 14 13 12 11 11 13 14 14 14 14 13
12 15 19 22 22 21 21 20 19 18 18 17 17 16 16 15 15 15 14 14 14 14 14 14 13 13 12 12 13 13 14 15 14 14 13 11 11 13 13 13 13 13 12
12 14 19 21 21 21 21 20 19 18 18 17 17 16 16 15 15 14 14 14 13 14 13 13 13 12 12 12 13 13 14 14 14 13 11 11 11 12 13 13 13 13 13
13 13 17 20 20 20 20 19 19 18 18 17 16 16 15 15 14 14 13 13 13 13 12 12 12 11 11 11 12 13 13 13 12 11 10 10 12 12 13 13 12 12 12
12 12 13 16 18 19 19 18 18 18 17 16 16 15 15 14 14 13 13 13 12 12 11 11 11 10 10 10 11 13 13 13 12 10 9 9 11 11 11 11 11 11 11
11 10 11 13 15 16 16 18 18 17 16 16 15 15 14 14 13 13 12 12 11 11 11 10 10 9 9 10 11 12 13 12 11 9 8 9 10 10 10 10 10 10 10
11 9 10 11 12 14 15 16 17 16 16 16 15 15 14 12 12 11 11 11 11 10 10 9 9 9 8 9 10 11 11 9 9 8 7 9 9 9 9 9 9 9 9
13 11 9 10 11 12 12 13 13 13 14 13 13 13 12 12 10 10 11 11 10 10 9 9 8 7 7 8 8 9 9 8 8 6 6 8 8 8 8 8 8 8 8
14 12 10 10 11 11 9 10 10 10 11 11 12 12 11 10 9 8 8 8 8 8 7 7 7 6 6 6 7 7 8 7 7 6 6 7 7 7 7 7 7 7 6
13 12 11 11 10 10 10 9 9 8 8 9 11 12 11 8 7 7 6 7 6 6 6 6 5 5 5 5 6 6 7 7 6 6 6 6 6 5 5 5 5 5 5
13 13 13 11 11 10 9 8 8 8 8 10 11 11 11 8 5 6 6 6 6 6 6 5 4 4 4 4 5 5 5 6 6 6 6 6 5 4 4 4 4 4 4
12 13 12 13 11 11 8 7 8 8 9 10 10 11 12 10 8 6 5 5 5 6 6 5 5 4 3 3 3 4 5 5 5 5 5 5 4 4 3 3 3 3 3
12 13 12 13 12 11 9 9 8 9 10 9 9 11 12 11 10 8 5 4 5 6 6 5 4 4 3 3 2 3 3 4 5 5 5 4 4 3 3 3 3 3 4
11 12 13 12 12 11 10 8 8 9 9 8 10 10 11 12 11 9 5 4 6 7 6 4 3 3 2 2 1 1 2 3 3 4 4 4 3 2 2 2 3 3 4
12 12 12 11 12 11 10 8 8 8 8 8 9 9 10 11 11 9 6 6 8 6 4 3 2 2 2 2 1 1 1 1 2 3 2 3 2 2 1 2 3 3 4
11 11 12 11 11 10 8 6 5 5 5 6 7 8 10 10 11 10 7 7 7 4 3 3 3 2 2 2 2 1 1 0 1 1 1 1 1 1 1 2 2 3 5
9 10 11 12 11 10 8 7 7 6 5 4 5 8 10 10 10 9 6 6 5 4 4 4 3 3 2 2 2 2 2 2 1 0 0 1 0 1 2 2 2 3 4
11 11 11 12 12 10 8 7 5 5 4 4 4 6 9 9 10 9 7 5 5 4 4 4 3 2 1 2 2 2 1 3 2 2 1 1 0 1 2 3 3 3 4
11 12 12 12 11 10 9 7 6 4 3 3 3 3 5 9 9 9 8 6 5 4 4 4 4 4 2 1 1 3 2 3 2 2 2 1 1 1 2 3 3 4 4
11 10 11 11 11 11 11 10 11 8 7 6 5 4 5 7 8 9 8 7 5 4 4 4 3 3 4 2 1 1 2 3 2 2 3 2 2 3 3 3 3 4 4
10 9 10 10 10 10 10 11 11 7 5 4 5 5 4 4 6 7 8 7 5 4 4 4 4 3 3 3 2 1 1 0 1 2 3 3 3 3 3 3 3 3 4
7 8 9 10 10 10 10 10 10 10 9 8 7 6 5 3 3 5 6 6 5 4 4 4 4 4 3 3 2 2 2 2 2 2 3 3 4 4 3 3 2 3 4
Wind_Direction
160 160 151 146 141 136 132 127 123 119 116 113 111 109 107 106 104 102 101 99 99 98 96 94 93 92 92 91 89 88 86 84 81 79 80 80 80 80 79 78 75 73 73
152 156 150 147 143 138 134 129 125 122 119 116 113 111 109 108 108 106 104 102 101 100 98 96 95 94 94 92 90 88 87 86 82 80 78 79 81 82 81 78 77 76 75
146 151 150 147 143 139 135 132 129 125 122 119 117 114 112 110 109 108 106 105 103 101 99 97 95 95 94 91 91 89 87 86 85 84 77 72 78 82 81 79 76 76 75
145 149 150 147 144 141 137 135 132 129 125 123 120 117 114 113 111 110 108 107 105 103 100 97 95 94 92 90 89 89 88 86 86 85 76 71 77 81 81 79 75 73 72
141 146 149 147 145 143 140 138 136 132 129 126 123 119 117 115 114 114 112 110 107 104 103 100 97 95 91 89 87 86 87 90 87 81 76 74 76 82 80 78 75 73 72
136 142 148 148 146 145 142 140 138 136 133 129 126 123 121 118 116 115 114 112 109 107 105 104 100 97 93 89 85 84 88 91 88 80 77 74 77 81 80 77 75 73 71
137 140 147 147 147 146 144 142 141 139 136 133 130 128 125 122 119 117 115 114 113 111 109 108 104 99 93 88 85 85 90 93 90 83 80 77 81 83 80 77 74 71 69
139 139 145 145 144 145 144 144 144 142 140 137 134 132 129 126 123 121 118 116 115 114 113 110 106 101 94 90 85 85 92 96 90 87 82 80 84 83 81 78 74 70 67
136 137 139 143 144 144 143 143 144 143 142 140 138 135 131 129 127 124 123 120 118 115 115 114 110 104 97 93 87 88 91 96 92 88 86 84 86 84 82 80 75 71 66
136 138 139 140 142 142 143 143 142 141 141 141 138 133 130 129 128 126 125 124 122 120 118 116 112 105 98 93 92 94 93 93 88 88 90 91 90 87 83 79 74 69 64
145 146 145 141 140 141 142 144 143 141 140 137 135 134 131 127 126 127 129 127 124 122 119 116 112 105 98 91 95 94 92 91 89 84 90 97 92 88 84 79 73 68 63
158 159 154 149 146 144 146 145 143 143 141 138 139 137 134 132 132 131 132 130 127 125 120 114 107 103 94 88 91 92 92 93 92 84 91 99 96 92 86 79 72 67 62
163 161 161 157 153 149 145 146 144 143 143 142 142 141 137 133 131 130 129 128 126 122 113 107 99 94 93 96 95 96 99 98 96 88 93 99 95 91 85 78 72 65 58
162 163 163 161 158 154 150 151 148 144 143 143 147 146 140 135 132 134 135 135 132 127 117 109 104 98 96 100 104 104 100 103 104 98 95 99 94 88 81 74 68 59 51
165 166 166 163 160 157 151 155 152 150 151 151 150 151 147 142 140 141 140 139 140 137 130 121 115 108 99 96 102 108 105 108 113 109 103 105 100 86 77 67 56 48 42
171 168 167 166 163 158 158 158 155 154 153 150 153 159 155 150 147 141 140 141 144 146 142 137 133 124 113 107 102 110 115 118 120 120 113 110 102 87 73 51 34 30 27
174 169 169 168 163 162 160 160 156 156 154 152 157 161 158 155 152 148 140 142 153 151 141 128 117 110 108 106 103 110 119 129 133 132 127 119 105 89 68 40 23 11 7
170 168 169 169 164 163 161 157 155 155 154 156 158 160 160 159 156 150 145 146 149 141 136 126 118 111 109 118 115 104 117 134 140 139 133 126 116 101 61 28 8 355 348
172 168 168 166 165 165 160 155 151 150 151 155 156 156 159 157 155 149 145 146 143 133 132 137 125 125 120 113 116 102 100 127 141 130 133 138 136 118 58 8 348 340 337
172 168 166 163 164 160 152 141 139 139 145 148 153 156 154 152 152 147 141 140 139 128 128 132 129 114 121 125 94 53 3 29 105 139 165 141 143 120 24 9 356 338 328
166 165 167 165 165 160 158 158 159 164 162 157 155 155 155 152 150 146 137 136 135 142 150 145 129 123 116 116 89 31 355 0 18 311 206 124 71 10 11 346 336 328 327
172 171 169 167 167 168 169 166 162 155 156 156 149 149 156 153 152 151 141 144 141 143 142 146 131 129 141 130 130 117 343 332 328 327 312 225 276 8 344 315 312 308 314
177 178 176 173 169 166 159 147 135 120 113 130 151 160 158 156 152 150 150 146 147 152 165 169 155 148 164 199 147 145 156 225 282 311 294 286 278 281 297 298 296 293 297
188 183 176 172 168 165 160 160 161 165 171 181 175 168 158 155 154 155 154 153 152 153 166 176 168 162 155 183 223 188 170 163 175 286 306 297 289 277 269 296 297 288 291
183 180 176 170 169 167 166 166 166 167 169 154 150 149 154 151 153 156 156 154 156 159 167 168 168 165 171 180 189 178 161 115 151 183 270 298 303 275 260 267 274 278 285
175 173 172 168 170 168 166 166 169 167 163 158 163 166 166 163 157 157 155 152 155 158 167 172 174 172 182 184 189 188 178 178 193 187 232 270 282 283 280 262 253 267 283
Height
1518 1521 1524 1527 1529 1530 1532 1533 1535 1535 1536 1537 1538 1538 1539 1539 1540 1541 1541 1542 1542 1543 1544 1544 1544 1545 1545 1545 1545 1545 1545 1545 1545 1545 1545 1545 1544 1544 1544 1544 1544 1544 1543
1516 1520 1524 1526 1529 1530 1532 1534 1535 1536 1537 1538 1539 1539 1540 1540 1541 1542 1542 1543 1544 1544 1545 1545 1546 1546 1546 1547 1547 1547 1547 1547 1547 1547 1546 1546 1546 1546 1546 1545 1545 1545 1545
1516 1520 1523 1526 1528 1530 1532 1534 1536 1537 1538 1539 1540 1540 1541 1542 1542 1543 1543 1544 1545 1545 1546 1546 1547 1547 1547 1548 1548 1548 1548 1548 1548 1548 1548 1548 1548 1548 1547 1547 1547 1546 1546
1516 1520 1523 1526 1528 1530 1532 1534 1536 1538 1539 1540 1541 1541 1542 1543 1543 1544 1544 1545 1546 1546 1547 1547 1548 1548 1548 1549 1549 1549 1549 1549 1549 1549 1549 1549 1549 1549 1549 1548 1548 1547 1547
1517 1520 1523 1526 1528 1531 1533 1535 1537 1538 1539 1541 1542 1542 1543 1544 1544 1545 1545 1546 1547 1547 1548 1548 1549 1549 1550 1550 1550 1551 1551 1551 1551 1551 1551 1551 1551 1551 1550 1550 1549 1549 1548
1516 1520 1523 1526 1528 1531 1533 1535 1537 1539 1540 1541 1542 1543 1544 1545 1546 1546 1547 1547 1548 1548 1549 1549 1550 1550 1551 1551 1551 1552 1552 1552 1552 1552 1552 1552 1552 1552 1551 1551 1550 1549 1549
1516 1520 1523 1526 1529 1531 1533 1535 1537 1539 1540 1542 1543 1544 1545 1546 1546 1547 1548 1548 1549 1549 1550 1550 1551 1551 1552 1552 1552 1553 1553 1553 1553 1553 1553 1553 1553 1553 1552 1551 1551 1550 1549
1517 1520 1523 1526 1529 1531 1533 1535 1537 1539 1541 1542 1544 1545 1546 1546 1547 1548 1548 1549 1549 1550 1551 1551 1552 1552 1553 1553 1553 1554 1554 1554 1554 1554 1554 1554 1554 1553 1553 1552 1551 1550 1550
1517 1520 1523 1526 1528 1531 1533 1535 1537 1539 1541 1543 1544 1545 1546 1547 1548 1548 1549 1550 1550 1551 1551 1552 1552 1553 1553 1554 1554 1554 1555 1555 1555 1555 1555 1555 1554 1554 1553 1552 1551 1551 1550
1518 1520 1523 1525 1528 1530 1533 1535 1537 1539 1541 1543 1544 1546 1547 1548 1548 1549 1550 1550 1551 1551 1552 1552 1553 1553 1554 1554 1555 1555 1555 1556 1556 1555 1555 1555 1555 1554 1553 1552 1552 1551 1550
1517 1520 1522 1525 1527 1530 1532 1535 1537 1539 1541 1543 1544 1546 1547 1548 1549 1549 1550 1551 1551 1552 1552 1553 1553 1554 1554 1555 1555 1556 1556 1556 1556 1556 1555 1555 1555 1554 1553 1552 1552 1551 1550
1515 1518 1521 1524 1526 1529 1532 1534 1536 1539 1540 1542 1544 1545 1547 1548 1549 1549 1550 1551 1552 1552 1553 1553 1554 1554 1555 1555 1556 1556 1556 1556 1556 1556 1555 1555 1555 1554 1553 1552 1552 1551 1550
1514 1517 1520 1523 1526 1528 1530 1533 1535 1538 1540 1542 1543 1545 1546 1547 1548 1549 1550 1551 1551 1552 1553 1553 1554 1554 1555 1555 1556 1556 1556 1556 1556 1556 1555 1555 1554 1554 1553 1552 1552 1551 1550
1512 1515 1519 1522 1524 1527 1530 1532 1534 1537 1539 1541 1542 1544 1545 1546 1547 1548 1549 1550 1551 1552 1552 1553 1554 1554 1555 1555 1555 1555 1555 1555 1555 1555 1555 1555 1554 1554 1553 1552 1551 1550 1550
1511 1514 1517 1520 1523 1526 1528 1531 1533 1535 1538 1540 1541 1543 1544 1546 1547 1548 1549 1550 1550 1551 1552 1553 1553 1554 1554 1555 1555 1555 1555 1555 1555 1554 1554 1554 1554 1553 1552 1552 1551 1550 1549
1509 1512 1516 1518 1522 1524 1527 1529 1532 1534 1536 1539 1540 1542 1544 1545 1546 1547 1548 1549 1550 1551 1551 1552 1553 1553 1554 1554 1554 1554 1554 1554 1554 1554 1553 1553 1553 1552 1552 1551 1550 1549 1548
1507 1511 1514 1517 1520 1523 1525 1528 1530 1532 1535 1537 1539 1541 1542 1544 1545 1546 1547 1548 1549 1550 1550 1551 1552 1552 1553 1553 1553 1553 1553 1553 1553 1553 1553 1552 1552 1551 1551 1550 1549 1548 1547
1505 1508 1511 1515 1518 1520 1523 1526 1528 1531 1533 1535 1537 1539 1541 1542 1544 1545 1546 1547 1548 1548 1549 1550 1550 1551 1551 1551 1552 1552 1552 1552 1552 1552 1551 1551 1551 1550 1549 1549 1548 1547 1546
1502 1506 1509 1512 1515 1518 1521 1524 1526 1529 1531 1533 1535 1537 1539 1540 1542 1543 1544 1545 1546 1547 1548 1548 1549 1549 1550 1550 1550 1550 1550 1550 1550 1550 1550 1550 1549 1548 1548 1547 1546 1545 1544
1500 1503 1507 1510 1513 1516 1519 1522 1524 1527 1529 1531 1533 1535 1537 1538 1540 1541 1542 1543 1544 1545 1546 1546 1547 1548 1548 1548 1548 1548 1548 1548 1548 1548 1548 1548 1547 1546 1546 1545 1544 1543 1541
1497 1500 1503 1506 1509 1512 1515 1517 1520 1523 1526 1528 1531 1532 1534 1536 1537 1539 1540 1541 1542 1543 1544 1545 1545 1546 1546 1547 1547 1546 1546 1546 1546 1546 1545 1545 1545 1544 1543 1542 1541 1540 1539
1493 1496 1500 1503 1506 1509 1512 1515 1518 1520 1523 1525 1528 1530 1532 1533 1535 1536 1537 1539 1540 1541 1541 1542 1543 1543 1543 1544 1544 1544 1544 1545 1543 1543 1543 1542 1542 1541 1541 1539 1538 1537 1535
1488 1492 1495 1499 1502 1505 1509 1512 1515 1518 1520 1522 1524 1526 1528 1530 1532 1533 1535 1536 1537 1538 1539 1539 1540 1540 1541 1541 1542 1542 1542 1541 1540 1540 1539 1539 1539 1538 1537 1536 1535 1534 1532
1484 1488 1491 1495 1498 1502 1505 1508 1510 1512 1515 1517 1520 1523 1525 1527 1529 1530 1532 1533 1534 1535 1536 1537 1537 1538 1538 1538 1539 1539 1540 1539 1539 1537 1537 1536 1536 1535 1534 1533 1532 1530 1529
1481 1484 1488 1491 1495 1498 1501 1504 1507 1510 1512 1515 1518 1520 1522 1524 1526 1527 1528 1530 1530 1531 1532 1533 1534 1535 1535 1535 1536 1536 1536 1536 1536 1535 1533 1532 1531 1531 1530 1529 1528 1526 1525
1478 1481 1484 1487 1491 1494 1497 1500 1503 1506 1509 1511 1514 1516 1518 1521 1522 1524 1525 1526 1527 1528 1529 1530 1531 1531 1532 1532 1533 1533 1533 1533 1532 1531 1530 1528 1527 1527 1526 1525 1524 1522 1521